Lid_Strength_Index
12 12 12 12 12 12 11 10 10 10 9 9 9 9 8 8 8 8 8 8 7 7
12 12 12 12 12 12 12 11 11 11 11 10 10 9 9 9 9 9 9 9 8 8
12 12 12 12 12 12 11 11 11 11 10 10 10 10 10 10 10 9 9 8 9 9
12 12 12 12 12 11 11 11 11 11 11 11 11 10 10 10 10 10 10 10 10 9
12 12 12 12 12 12 12 11 12 11 11 11 11 11 11 11 11 11 11 10 10 10
12 12 13 13 13 12 12 12 12 12 12 12 11 11 11 11 11 11 11 10 10 10
13 14 14 14 13 13 13 13 13 12 12 12 11 11 11 10 11 11 10 11 11 11
14 14 14 14 14 14 14 13 13 13 12 12 12 11 10 11 11 11 11 11 12 12
15 15 15 15 15 15 14 14 13 13 13 13 12 10 10 10 12 12 12 12 12 12
16 16 15 15 15 15 15 14 14 14 14 14 14 11 10 10 12 12 13 13 12 12
16 16 16 16 15 15 15 15 15 15 14 14 13 11 11 11 12 12 12 12 12 12
17 17 17 16 17 16 16 16 15 15 15 15 14 12 12 12 13 13 13 12 12 12
17 18 18 17 17 17 16 16 16 16 16 16 15 14 13 13 13 14 14 13 12 12
19 19 18 18 18 18 18 18 18 18 17 17 16 15 13 13 14 14 14 13 14 13